Wind_Speed
3 7 9 11 11 11 10 9 8 10 10 11 11 10 10 7 6 5 5 5 3 1 0 1 2 1 0 1 3 3 5 6 6 5 4 3 4 5 5 4 3 3 5 7 7 6 6 5 5
5 7 8 10 10 7 8 9 8 7 6 6 6 6 6 5 5 5 5 5 4 3 3 1 1 1 3 4 6 6 7 7 7 6 5 4 4 5 6 5 4 3 4 6 8 7 6 4 2
5 6 7 5 6 3 5 6 8 9 7 5 4 3 2 2 3 3 3 3 3 3 4 3 4 5 6 7 8 9 8 6 5 5 6 5 5 5 5 6 5 3 4 6 9 9 9 6 4
6 5 4 4 4 4 5 7 8 7 7 6 5 4 3 2 1 1 1 2 3 3 3 4 5 6 6 6 7 8 7 5 4 4 6 7 6 6 6 6 6 6 7 11 12 10 11 10 8
9 8 7 8 9 7 5 5 5 7 6 5 4 4 3 2 2 3 3 3 3 3 3 3 3 4 5 6 7 7 7 6 6 6 6 7 7 7 7 8 11 12 13 13 11 9 9 8 8
13 12 9 8 11 6 4 5 10 11 8 7 4 4 3 1 1 1 1 1 3 3 3 3 3 4 5 6 7 8 8 8 8 8 8 8 8 10 11 14 16 15 15 13 12 12 10 7 7
18 16 14 12 12 9 9 9 11 12 10 9 6 4 3 0 1 1 1 2 3 4 4 5 6 8 9 10 10 10 11 11 11 11 11 12 14 16 16 16 18 18 18 17 16 15 14 12 10
23 20 19 17 16 15 11 11 10 8 9 9 7 5 5 5 5 5 6 7 9 10 11 11 12 13 14 15 16 16 17 17 17 17 17 18 19 20 20 21 21 20 20 19 19 19 19 18 16
26 22 19 21 19 18 13 9 8 9 9 9 9 8 9 9 10 11 13 14 16 18 19 21 22 23 24 24 24 24 22 23 23 22 22 24 25 25 25 25 26 26 26 25 24 25 24 23 22
26 24 22 26 22 19 16 9 10 9 9 11 13 13 12 14 16 19 21 22 23 24 23 24 26 28 29 30 31 31 30 30 30 30 30 30 31 31 31 30 31 31 32 32 31 31 30 29 28
25 27 29 29 26 23 21 14 13 13 13 14 15 17 17 19 23 26 28 27 28 28 28 28 30 32 33 33 33 34 35 36 36 36 36 35 36 35 35 35 36 37 38 38 37 36 36 35 36
22 25 28 29 29 27 24 19 15 17 18 17 19 20 22 25 27 30 32 31 31 31 32 32 35 36 37 37 37 37 37 38 39 39 39 40 41 41 41 41 41 42 44 43 41 41 42 41 42
25 23 23 25 27 27 25 23 20 19 22 22 22 21 23 27 30 33 34 34 34 35 35 35 35 36 38 39 40 40 40 40 40 40 41 43 44 46 45 45 45 46 48 48 45 47 50 51 46
29 26 24 23 23 25 25 24 24 22 24 25 26 26 28 31 33 34 36 36 37 37 35 33 32 34 37 39 41 41 38 37 36 35 35 37 39 41 40 39 40 41 42 42 42 45 52 51 38
32 29 26 26 24 23 25 26 26 27 27 29 29 30 32 34 34 36 37 37 37 35 34 33 33 35 36 37 38 38 36 36 37 37 36 35 35 34 32 32 33 34 34 35 37 40 41 35 32
36 33 31 32 31 30 29 27 30 28 30 31 32 33 34 36 37 38 38 37 34 32 33 37 37 35 34 35 34 35 35 36 37 36 35 34 33 31 31 31 30 31 31 35 37 38 39 35 31
35 34 35 37 38 36 35 34 38 34 35 35 35 35 35 37 38 37 38 36 33 33 35 37 36 32 32 33 32 34 34 34 34 32 30 30 30 28 28 28 28 30 31 33 36 37 37 33 31
26 31 35 39 43 39 40 41 41 40 40 41 39 38 38 38 36 37 36 35 37 36 33 34 29 26 27 28 29 31 30 29 28 30 30 29 27 25 24 25 26 27 30 32 36 38 37 33 30
26 29 31 38 44 42 44 45 45 44 43 40 36 34 33 34 34 35 36 38 38 35 34 28 25 24 26 27 26 25 25 24 23 24 26 24 21 20 21 21 21 23 26 30 34 38 39 36 33
18 22 25 35 40 41 43 43 42 39 35 31 29 29 30 32 34 36 37 38 37 36 33 28 27 27 26 23 21 20 20 19 19 21 21 18 16 17 17 17 19 22 26 28 32 36 38 37 36
11 16 20 25 29 29 32 32 32 31 28 27 28 30 31 34 36 36 37 38 36 35 31 28 27 25 22 21 21 19 17 17 18 19 18 17 17 17 16 16 18 22 26 30 33 36 37 37 36
8 16 15 17 19 18 25 22 21 27 26 27 28 29 31 35 38 37 37 37 33 30 28 28 30 28 24 24 23 21 20 21 21 21 20 19 17 16 17 17 19 23 25 29 32 35 35 35 35
11 14 13 14 15 16 17 18 15 24 26 28 31 33 36 38 41 38 34 31 29 29 32 34 34 30 27 26 27 26 25 25 26 27 26 24 22 21 20 21 22 24 26 29 31 30 32 34 34
11 11 11 13 13 10 14 11 10 20 20 22 26 31 34 35 37 33 30 28 28 30 32 33 33 32 29 28 29 28 30 31 31 32 32 30 27 24 21 21 23 23 26 30 32 32 32 33 32
13 12 9 8 9 12 17 10 16 20 20 21 24 27 27 29 29 30 29 23 26 30 32 33 33 33 32 32 31 30 32 34 34 35 36 35 32 27 23 21 23 25 27 30 33 33 32 31 29
10 10 8 8 10 12 14 9 17 18 19 20 21 24 25 26 28 30 32 31 34 36 36 35 36 35 37 38 36 35 35 37 35 34 35 34 34 31 25 23 24 26 28 30 33 32 30 29 29
8 9 10 11 11 11 9 12 18 23 23 23 23 25 27 29 31 32 32 35 37 38 38 39 39 40 44 44 43 42 41 40 38 35 33 32 32 30 25 24 26 26 26 29 31 31 29 28 27
9 11 10 10 10 10 12 15 21 20 24 27 29 32 33 35 37 38 38 37 38 41 44 45 46 49 51 51 50 48 45 43 40 37 37 36 32 29 25 23 24 24 25 28 30 31 31 28 26
14 15 13 13 15 17 16 20 24 23 25 27 30 34 37 40 41 42 44 44 43 45 48 50 52 54 55 56 56 55 53 50 44 39 36 35 33 28 27 23 23 24 26 28 29 31 31 30 26
16 18 18 18 20 23 26 28 29 30 32 33 35 37 39 40 42 44 46 48 49 50 52 55 58 60 61 61 61 60 61 58 52 46 39 38 33 26 27 32 30 30 30 29 28 29 31 31 27
Wind_Direction
93 75 76 79 77 73 67 61 69 78 82 77 71 69 69 68 65 60 57 49 39 57 251 136 134 133 318 301 298 306 319 323 324 330 339 15 23 15 19 25 40 52 47 44 42 39 42 45 49
130 102 98 89 75 61 46 32 32 41 56 66 76 73 73 67 61 60 53 45 20 353 319 313 215 264 283 292 292 292 302 310 314 319 317 323 346 348 348 344 344 2 20 18 13 6 5 3 10
163 134 125 84 56 48 27 14 8 7 10 11 19 27 53 62 72 61 45 28 354 330 315 311 300 291 288 292 295 297 304 308 309 312 308 301 310 319 326 326 332 345 8 359 347 339 331 316 288
225 215 226 288 302 308 327 340 346 346 345 345 338 327 298 264 243 273 287 302 305 305 308 304 307 305 300 295 298 301 305 299 287 293 295 295 299 307 320 322 331 334 341 340 335 326 315 299 270
240 259 275 283 276 274 288 311 333 336 322 311 298 293 292 289 276 265 253 255 267 281 298 306 313 310 300 289 289 293 295 287 277 281 286 294 306 315 324 326 327 323 323 329 336 340 327 305 270
246 252 261 265 271 263 245 290 318 329 316 304 298 281 284 278 242 247 264 279 262 259 260 280 287 280 278 282 283 284 286 285 283 279 275 272 281 293 302 311 315 315 315 321 330 333 331 322 295
249 252 253 256 267 255 250 276 311 321 312 307 294 253 253 217 266 260 228 224 243 260 278 284 278 268 265 269 275 276 275 280 285 280 270 270 281 289 295 301 302 303 306 309 310 313 312 304 298
250 255 263 264 266 262 259 277 296 303 299 295 283 248 243 259 275 283 279 273 274 281 287 286 283 281 277 274 275 275 271 274 278 280 273 269 273 281 287 290 287 285 287 291 294 295 297 297 293
248 252 259 261 258 262 263 272 270 280 296 280 269 260 257 265 278 288 292 292 291 291 291 290 289 288 285 281 278 275 272 273 274 275 274 274 275 277 280 282 281 280 278 276 278 280 281 284 285
244 246 244 254 260 263 270 267 255 266 288 269 265 272 275 279 287 291 292 295 297 298 295 290 287 287 286 282 277 276 275 274 274 273 274 277 279 278 278 280 280 280 278 276 275 277 278 278 280
240 237 244 251 257 264 269 267 252 261 275 269 271 277 282 286 292 295 295 298 299 297 295 290 288 287 286 282 279 277 276 276 276 277 278 278 276 275 275 275 276 277 276 274 275 277 276 277 277
241 241 247 252 257 261 263 260 251 257 266 275 283 282 284 287 292 294 298 302 302 301 298 292 291 290 288 285 283 280 276 274 273 273 274 276 276 274 273 275 277 278 276 274 274 275 273 274 277
239 243 246 250 252 254 256 256 253 254 267 279 286 284 280 284 290 293 299 303 304 303 300 296 294 290 287 285 284 283 281 280 279 277 276 276 275 276 278 280 280 279 277 275 272 268 263 264 272
238 242 250 253 255 253 255 256 258 258 267 274 280 281 282 285 287 290 295 299 300 299 296 294 292 287 285 285 284 284 284 284 282 280 280 280 280 280 282 282 281 281 280 282 280 276 268 261 271
238 239 244 252 256 258 258 259 263 262 268 271 276 279 282 283 282 286 291 294 295 294 295 295 294 286 281 280 279 280 282 281 280 281 281 280 280 281 284 284 285 285 284 284 287 285 285 279 279
237 238 239 244 247 250 254 261 261 262 266 269 272 274 275 277 280 285 288 290 293 296 297 298 297 291 283 279 275 274 275 276 278 282 284 285 286 288 292 294 294 294 293 293 291 287 289 294 288
240 238 239 241 245 249 253 254 258 263 265 268 270 272 272 272 276 280 282 286 291 296 300 299 298 290 283 281 276 274 278 279 278 278 282 287 290 294 299 300 301 301 300 297 294 293 291 291 286
239 237 242 244 248 250 254 257 260 262 265 267 269 270 268 268 270 273 278 283 290 297 303 303 296 286 279 278 276 277 281 283 284 275 276 285 289 293 296 298 301 301 300 297 292 289 288 287 283
242 242 243 248 251 253 256 260 264 266 268 269 270 267 263 265 268 273 280 286 292 298 304 300 290 288 286 285 283 284 283 282 283 282 281 283 288 295 298 300 305 305 302 296 290 286 282 280 277
257 252 251 252 254 255 259 265 269 274 275 270 266 265 264 266 269 273 282 288 294 299 301 293 291 293 290 284 280 279 281 281 279 275 274 277 291 305 307 311 319 322 317 307 294 286 281 276 271
279 267 260 263 264 269 270 275 280 275 271 267 266 266 266 270 273 277 283 287 292 296 294 287 287 292 286 279 277 275 275 278 282 281 279 280 291 303 314 316 325 327 326 321 308 293 285 279 274
278 271 273 273 274 272 269 269 266 276 278 274 271 272 273 276 279 280 283 286 292 295 294 293 293 292 285 280 280 281 282 283 282 280 277 278 286 291 294 304 321 328 328 328 319 295 288 283 276
282 284 285 289 289 288 278 280 279 274 271 266 263 264 268 272 277 277 277 280 286 292 296 298 297 290 283 282 287 286 284 281 279 278 277 276 280 285 293 296 306 326 332 331 329 309 291 285 278
304 301 295 306 313 309 285 290 281 274 277 269 262 261 263 266 270 269 267 277 286 291 294 295 294 290 286 287 289 287 285 284 283 283 281 279 282 287 299 309 307 319 330 334 330 319 299 287 281
302 308 314 308 296 285 289 295 267 284 290 284 277 276 278 278 275 267 262 277 283 284 286 288 289 290 290 288 284 283 284 285 284 281 277 274 274 279 289 299 304 310 319 331 333 324 308 290 282
303 313 300 274 272 279 300 293 281 298 294 289 281 278 278 277 281 283 285 289 285 283 283 282 283 286 286 285 282 280 280 281 282 282 277 272 269 271 278 291 301 307 314 322 330 327 314 302 288
326 325 320 312 317 325 295 292 300 301 299 293 285 282 281 282 284 286 283 279 277 279 283 283 281 284 284 282 279 279 279 281 283 281 274 273 275 277 284 294 300 302 308 315 321 329 318 309 303
328 324 322 316 306 289 285 290 279 282 289 290 288 286 284 281 283 283 283 281 277 276 279 283 281 279 279 280 279 278 278 277 277 278 275 272 274 280 285 287 289 294 302 310 314 322 324 313 307
328 320 310 298 294 297 291 281 287 294 290 285 280 278 278 279 279 278 276 278 278 275 275 275 275 275 276 277 278 277 277 278 277 274 270 268 270 275 279 282 288 294 304 310 311 314 321 319 312
319 315 312 310 306 305 302 298 303 304 302 297 292 288 285 281 276 274 274 274 275 275 274 273 272 272 269 268 269 270 271 274 274 271 266 265 266 272 288 295 291 291 295 303 308 309 314 318 316
Height
5933 5933 5934 5935 5937 5939 5939 5938 5936 5935 5935 5934 5933 5933 5933 5934 5935 5936 5933 5931 5931 5931 5930 5929 5929 5928 5927 5927 5926 5925 5924 5922 5920 5919 5917 5916 5915 5914 5912 5910 5910 5910 5909 5907 5907 5906 5905 5902 5900
5933 5934 5935 5936 5939 5940 5938 5937 5936 5936 5935 5934 5934 5934 5934 5933 5934 5933 5932 5932 5931 5931 5931 5930 5929 5929 5928 5927 5926 5924 5922 5921 5920 5919 5917 5916 5915 5914 5912 5910 5910 5909 5908 5907 5906 5906 5905 5903 5901
5933 5934 5936 5937 5940 5940 5938 5937 5935 5934 5934 5934 5933 5933 5933 5932 5932 5932 5931 5931 5931 5931 5931 5930 5929 5929 5928 5927 5926 5923 5921 5919 5918 5917 5917 5915 5913 5913 5912 5911 5910 5909 5908 5907 5906 5905 5904 5903 5901
5932 5934 5936 5938 5940 5938 5937 5936 5935 5934 5934 5933 5932 5932 5931 5931 5931 5930 5930 5930 5930 5930 5929 5929 5928 5928 5927 5926 5924 5922 5920 5918 5917 5915 5914 5914 5912 5911 5911 5911 5910 5909 5908 5907 5906 5903 5902 5901 5900
5931 5933 5936 5936 5937 5937 5936 5936 5936 5935 5934 5932 5931 5930 5930 5929 5929 5929 5928 5928 5928 5928 5927 5927 5926 5926 5925 5924 5922 5921 5919 5917 5915 5914 5913 5912 5912 5911 5909 5909 5908 5907 5906 5904 5903 5901 5899 5898 5898
5929 5932 5936 5938 5937 5937 5937 5936 5936 5936 5934 5933 5931 5930 5929 5928 5927 5927 5927 5927 5927 5926 5926 5925 5924 5924 5923 5922 5920 5919 5917 5916 5914 5913 5911 5910 5910 5909 5907 5906 5905 5904 5902 5901 5900 5899 5897 5896 5896
5928 5930 5933 5935 5935 5936 5937 5936 5936 5935 5933 5932 5931 5930 5928 5927 5926 5925 5926 5926 5926 5925 5924 5924 5923 5922 5921 5920 5918 5916 5915 5913 5912 5910 5909 5908 5906 5905 5904 5903 5901 5900 5899 5897 5897 5896 5895 5894 5894
5925 5929 5931 5933 5933 5933 5935 5935 5935 5934 5932 5931 5929 5928 5927 5926 5925 5925 5925 5925 5924 5923 5923 5922 5922 5921 5920 5918 5916 5915 5912 5910 5908 5907 5906 5905 5903 5901 5900 5899 5898 5896 5894 5893 5893 5892 5892 5891 5890
5922 5928 5929 5930 5931 5930 5932 5933 5932 5931 5931 5930 5928 5927 5926 5925 5924 5924 5923 5923 5922 5921 5921 5920 5919 5918 5917 5915 5913 5911 5909 5907 5905 5903 5902 5901 5899 5898 5896 5895 5893 5892 5890 5889 5888 5887 5888 5888 5887
5919 5924 5927 5924 5926 5927 5928 5930 5930 5930 5929 5929 5927 5925 5923 5922 5922 5921 5921 5919 5919 5918 5918 5916 5914 5913 5911 5909 5907 5905 5904 5902 5901 5899 5897 5896 5895 5893 5891 5890 5888 5887 5885 5884 5883 5882 5883 5883 5883
5915 5918 5918 5920 5921 5923 5924 5927 5928 5928 5927 5926 5924 5922 5920 5919 5918 5917 5916 5916 5916 5915 5914 5912 5909 5907 5905 5903 5900 5898 5897 5895 5894 5893 5892 5890 5888 5886 5885 5883 5882 5881 5879 5877 5877 5877 5877 5877 5877
5912 5912 5914 5915 5917 5919 5920 5922 5925 5925 5924 5922 5921 5920 5917 5915 5915 5914 5912 5912 5911 5910 5909 5906 5904 5901 5898 5895 5893 5891 5889 5887 5886 5885 5884 5883 5881 5879 5877 5875 5874 5873 5870 5870 5871 5870 5869 5869 5870
5908 5908 5910 5911 5912 5915 5917 5919 5921 5922 5919 5918 5917 5916 5914 5912 5911 5909 5907 5906 5905 5904 5901 5899 5897 5894 5891 5888 5886 5884 5882 5880 5879 5878 5877 5875 5873 5870 5869 5868 5865 5863 5861 5860 5861 5859 5857 5859 5860
5902 5905 5906 5907 5908 5911 5913 5915 5916 5918 5915 5914 5913 5912 5910 5908 5907 5904 5902 5901 5900 5897 5895 5893 5890 5888 5884 5881 5878 5875 5874 5873 5871 5870 5869 5867 5864 5862 5861 5859 5856 5853 5851 5851 5850 5846 5846 5848 5851
5898 5902 5903 5903 5904 5905 5907 5909 5911 5911 5911 5910 5909 5908 5905 5903 5901 5898 5897 5896 5893 5891 5889 5886 5884 5881 5878 5875 5873 5870 5868 5865 5863 5863 5861 5859 5857 5855 5853 5851 5849 5847 5845 5844 5842 5838 5838 5840 5841
5893 5897 5900 5898 5898 5899 5903 5905 5904 5905 5905 5904 5904 5902 5900 5897 5895 5893 5891 5889 5887 5885 5882 5878 5876 5872 5869 5866 5864 5862 5860 5858 5857 5855 5854 5852 5850 5849 5847 5845 5843 5841 5840 5838 5835 5831 5830 5832 5833
5887 5893 5892 5892 5892 5894 5897 5899 5896 5899 5898 5898 5898 5896 5894 5892 5890 5889 5886 5884 5882 5879 5876 5872 5869 5864 5861 5859 5858 5856 5854 5853 5851 5849 5848 5846 5844 5842 5841 5839 5837 5835 5833 5830 5827 5824 5822 5823 5825
5882 5884 5884 5885 5884 5889 5889 5890 5891 5892 5892 5891 5891 5890 5888 5886 5885 5883 5881 5879 5876 5873 5869 5866 5861 5858 5855 5853 5851 5849 5848 5846 5844 5842 5842 5840 5839 5837 5836 5834 5832 5829 5826 5823 5820 5818 5816 5816 5816
5875 5877 5878 5878 5878 5882 5882 5882 5882 5883 5883 5883 5883 5882 5881 5880 5879 5877 5874 5871 5869 5866 5863 5858 5855 5852 5850 5848 5846 5844 5843 5840 5838 5836 5835 5833 5832 5831 5829 5827 5825 5822 5819 5816 5813 5810 5809 5809 5808
5872 5873 5874 5873 5873 5875 5874 5875 5875 5876 5876 5876 5876 5876 5875 5874 5872 5869 5866 5864 5861 5858 5855 5852 5850 5847 5844 5842 5840 5838 5836 5835 5834 5832 5830 5828 5827 5825 5823 5820 5817 5814 5811 5808 5805 5802 5800 5800 5800
5871 5870 5869 5869 5869 5870 5870 5871 5869 5869 5870 5871 5870 5870 5869 5866 5863 5861 5859 5855 5852 5850 5847 5845 5844 5841 5839 5836 5833 5832 5831 5830 5828 5826 5825 5823 5821 5819 5816 5813 5811 5807 5804 5800 5797 5793 5790 5789 5790
5868 5865 5864 5864 5864 5865 5864 5865 5867 5863 5863 5863 5863 5863 5861 5857 5853 5851 5849 5846 5844 5842 5840 5838 5836 5834 5832 5830 5828 5827 5826 5824 5822 5820 5819 5817 5815 5812 5810 5807 5805 5802 5799 5795 5791 5785 5782 5780 5781
5863 5861 5861 5860 5860 5860 5859 5859 5862 5857 5856 5855 5855 5854 5851 5848 5844 5842 5839 5838 5836 5834 5831 5830 5828 5826 5825 5824 5823 5821 5820 5818 5816 5815 5813 5810 5808 5805 5803 5800 5798 5795 5791 5787 5783 5778 5774 5771 5771
5860 5860 5859 5859 5859 5859 5856 5858 5860 5851 5849 5849 5846 5844 5842 5839 5835 5833 5831 5831 5830 5827 5823 5822 5820 5818 5818 5817 5817 5815 5813 5811 5810 5808 5806 5804 5802 5799 5796 5793 5790 5788 5784 5781 5776 5770 5766 5764 5763
5859 5859 5859 5861 5861 5859 5854 5854 5852 5847 5845 5843 5841 5838 5838 5835 5832 5829 5823 5823 5823 5819 5816 5815 5813 5811 5809 5809 5809 5808 5806 5804 5802 5800 5798 5796 5794 5792 5789 5786 5784 5780 5777 5774 5769 5764 5759 5757 5756
5857 5856 5857 5858 5858 5854 5850 5850 5844 5842 5839 5837 5835 5833 5831 5829 5826 5822 5819 5816 5816 5812 5809 5807 5805 5804 5802 5800 5799 5799 5798 5795 5793 5791 5788 5787 5786 5784 5781 5778 5775 5772 5769 5767 5763 5758 5754 5751 5749
5855 5854 5854 5853 5851 5850 5851 5847 5839 5837 5833 5831 5830 5828 5825 5823 5820 5817 5815 5813 5809 5805 5802 5799 5797 5795 5793 5790 5787 5786 5786 5784 5781 5780 5779 5777 5776 5774 5771 5768 5767 5765 5762 5760 5756 5753 5749 5744 5740
5855 5853 5852 5853 5850 5849 5848 5844 5841 5835 5831 5828 5824 5821 5818 5816 5812 5809 5805 5802 5800 5797 5793 5789 5786 5783 5781 5778 5775 5774 5773 5773 5771 5770 5769 5768 5767 5764 5762 5760 5758 5756 5753 5751 5749 5746 5742 5737 5735
5852 5850 5848 5847 5845 5842 5840 5840 5833 5831 5828 5824 5819 5814 5810 5806 5803 5799 5795 5790 5787 5784 5781 5777 5775 5771 5767 5763 5761 5759 5759 5759 5760 5759 5758 5758 5757 5755 5754 5751 5749 5747 5745 5743 5740 5738 5736 5731 5728
5849 5846 5844 5843 5839 5835 5831 5829 5825 5821 5818 5815 5810 5805 5801 5796 5792 5787 5783 5778 5774 5770 5766 5763 5759 5756 5751 5747 5745 5743 5741 5741 5743 5746 5745 5745 5744 5742 5742 5743 5740 5738 5736 5735 5733 5731 5730 5726 5721